Volver al catálogo

STARLINK-5163

ActivoComunicacionesVLEO
NORAD 54054·PAYLOAD·🇺🇸 United States

Lanzado Oct 20, 2022 desde Cape Canaveral Space Force Station

Loading…

Próximos Pases (próximas 24 horas)

TLE

ActualizadoSource: CelesTrak SupGP

Época: Sep 15, 2026, 03:04 UTC

1 54054C 22136D   26258.12826389 -.00010969  00000+0 -35295-3 0  2585
2 54054  53.1571 201.2806 0001144  96.1496 201.2463 15.31688360    16

Sigue STARLINK-5163 en tiempo real con AllMySat

Download on the App Store